Charleston, SC

10:00 PM EDT on March 28, 2017 (GMT -0400)
Charleston Air Force Base-International

Weather History for KCHS - September, 2013

Change the Weather History Date:

Tuesday, September 17, 2013

  Actual Average Record
Temperature  
Mean Temperature 76 °F 76 °F  
Max Temperature 83 °F 85 °F 96 °F (1972)
Min Temperature 69 °F 67 °F 54 °F (2001)
Degree Days  
Heating Degree Days 0 0  
Month to date heating degree days 0 0  
Since 1 July heating degree days 0 0  
Cooling Degree Days 11 11  
Month to date cooling degree days 273 216  
Year to date cooling degree days 2128 2021  
Growing Degree Days 26 (Base 50)    
Moisture  
Dew Point 65 °F    
Average Humidity 70    
Maximum Humidity 93    
Minimum Humidity 47    
Precipitation  
Precipitation 0.00 in 0.20 in 6.19 in (1945)
Month to date precipitation 2.70 3.82  
Year to date precipitation 48.76 39.46  
Sea Level Pressure  
Sea Level Pressure 30.15 in    
Wind  
Wind Speed 10 mph (NE)    
Max Wind Speed 20 mph    
Max Gust Speed 23 mph    
Visibility 10 miles    
Events      
T = Trace of Precipitation, MM = Missing Value Source: NWS Daily Summary

Daily Weather History Graph

Daily Weather History Graph

Search for Another Location

Airport or City:

Trip Planner

Search our weather history database for the weather conditions in past years. The results will help you decide how hot, cold, wet, or windy it might be!

Date:

Astronomy

Sep. 17, 2013 Rise Set
Actual Time 7:05 AM EDT 7:23 PM EDT
Civil Twilight 6:40 AM EDT 7:47 PM EDT
Nautical Twilight 6:11 AM EDT 8:16 PM EDT
Astronomical Twilight 5:42 AM EDT 8:46 PM EDT
Moon 6:06 PM EDT (9/17) 5:02 AM EDT (9/17)
Length of Visible Light 13h 07m
Length of Day
12h 18m
Waxing Gibbous, 96% of the Moon is Illuminated
Sep 17
Waxing Gibbous
Sep 19
Full
Sep 26
Last Quarter
Oct 4
New
Oct 11
First Quarter

Hourly Weather History & Observations

Time (EDT) Temp. Heat Index Dew Point Humidity Pressure Visibility Wind Dir Wind Speed Gust Speed Precip Events Conditions
12:56 AM 72.0 °F - 69.1 °F 91% 30.09 in 10.0 mi North 3.5 mph - N/A   Scattered Clouds
1:56 AM 72.0 °F - 69.1 °F 91% 30.08 in 10.0 mi Calm Calm - N/A   Scattered Clouds
2:56 AM 72.0 °F - 70.0 °F 93% 30.09 in 10.0 mi NNE 6.9 mph - N/A   Mostly Cloudy
3:56 AM 73.0 °F - 70.0 °F 90% 30.09 in 10.0 mi NNE 5.8 mph - N/A   Mostly Cloudy
4:27 AM 73.4 °F - 69.8 °F 88% 30.09 in 9.0 mi NNE 11.5 mph - N/A   Mostly Cloudy
4:42 AM 73.4 °F - 69.8 °F 88% 30.09 in 9.0 mi NNE 13.8 mph - N/A   Overcast
4:56 AM 73.0 °F - 70.0 °F 90% 30.09 in 9.0 mi NNE 11.5 mph 20.7 mph N/A   Mostly Cloudy
5:16 AM 73.4 °F - 69.8 °F 88% 30.10 in 9.0 mi NE 13.8 mph - N/A   Overcast
5:56 AM 72.0 °F - 69.1 °F 91% 30.12 in 10.0 mi NE 8.1 mph - N/A   Overcast
6:11 AM 71.6 °F - 68.0 °F 88% 30.13 in 10.0 mi NE 9.2 mph - N/A   Mostly Cloudy
6:56 AM 69.1 °F - 64.0 °F 84% 30.15 in 10.0 mi NNE 10.4 mph - N/A   Scattered Clouds
7:56 AM 69.1 °F - 64.0 °F 84% 30.17 in 10.0 mi NNE 9.2 mph - N/A   Mostly Cloudy
8:56 AM 70.0 °F - 63.0 °F 78% 30.19 in 10.0 mi NNE 13.8 mph - N/A   Overcast
9:56 AM 73.0 °F - 63.0 °F 71% 30.20 in 10.0 mi NNE 13.8 mph 23.0 mph N/A   Mostly Cloudy
10:56 AM 75.9 °F - 64.0 °F 67% 30.22 in 10.0 mi NE 13.8 mph - N/A   Scattered Clouds
11:56 AM 78.1 °F - 64.9 °F 64% 30.22 in 10.0 mi ENE 10.4 mph - N/A   Scattered Clouds
12:56 PM 80.1 °F 81.9 °F 64.9 °F 60% 30.21 in 10.0 mi ENE 15.0 mph - N/A   Scattered Clouds
1:56 PM 81.0 °F 82.5 °F 64.0 °F 56% 30.19 in 10.0 mi ENE 11.5 mph 18.4 mph N/A   Scattered Clouds
2:56 PM 81.0 °F 81.9 °F 62.1 °F 52% 30.17 in 10.0 mi East 13.8 mph - N/A   Scattered Clouds
3:56 PM 82.0 °F 82.7 °F 61.0 °F 49% 30.16 in 10.0 mi East 11.5 mph 17.3 mph N/A   Mostly Cloudy
4:56 PM 80.1 °F 81.1 °F 61.0 °F 52% 30.16 in 10.0 mi East 16.1 mph - N/A   Mostly Cloudy
5:56 PM 79.0 °F - 60.1 °F 52% 30.16 in 10.0 mi East 12.7 mph - N/A   Mostly Cloudy
6:56 PM 75.9 °F - 61.0 °F 60% 30.16 in 10.0 mi ENE 11.5 mph - N/A   Mostly Cloudy
7:56 PM 73.0 °F - 61.0 °F 66% 30.17 in 10.0 mi NE 5.8 mph - N/A   Scattered Clouds
8:56 PM 71.1 °F - 62.1 °F 73% 30.18 in 10.0 mi NNE 5.8 mph - N/A   Scattered Clouds
9:56 PM 70.0 °F - 62.1 °F 76% 30.19 in 10.0 mi NNE 6.9 mph - N/A   Scattered Clouds
10:56 PM 70.0 °F - 61.0 °F 73% 30.19 in 10.0 mi NE 9.2 mph - N/A   Partly Cloudy
11:56 PM 69.1 °F - 61.0 °F 75% 30.19 in 10.0 mi NNE 8.1 mph - N/A   Clear